User: anonymous   Login
Location: ?????
(31.8092°N, 35.2590°E)
Time: 17:01:06
(UTC+00:00)
Language:

Okean 2 - Orbit

View from above orbital plane
View from above orbital plane
View from above satellite
View from above satellite

Ground track
Ground track

The orbit data is extracted from the following two-line orbital elements,

1 20510U 90018A   21259.09247992  .00000244  00000-0  17458-4 0  9996
2 20510  82.5140 120.3304 0013124 132.1080  27.5080 14.99770234713985
Epoch (UTC): 16 September 2021 02:13:10
Eccentricity: 0.0013124
inclination: 82.5140°
perigee height: 558 km
apogee height: 577 km
right ascension of ascending node: 120.3304°
argument of perigee: 132.1080°
revolutions per day: 14.99770234
mean anomaly at epoch: 27.5080°
orbit number at epoch: 71398

The dashed part of the orbit path shows where the satellite is in the earth's shadow,  

DLR